SCR744 EDRY-LSGG

Flight info

Callsign SCR744
Flight time N/A
Altitude 31000
Route KRH DCT GAGSI/N0333F230 N850 NATOR N869 BENOT
Aircraft GLF6/M-SFGHIRWXY/S

Departure

Time 2026-04-17 10:22
Airport Speyer Airfield (EDRY)

Arrival

Time N/A
Airport Geneva International Airport (LSGG)
Time Latitude Longitude Altitude Speed Heading
2026-04-17 09:45 49.30989 8.45134 322 ft 0 kts 70°
2026-04-17 10:20 49.30989 8.45135 322 ft 1 kts 77°
2026-04-17 10:20 49.30979 8.45144 322 ft 1 kts 236°
2026-04-17 10:20 49.30974 8.45093 320 ft 2 kts 257°
2026-04-17 10:21 49.30948 8.45087 320 ft 6 kts 169°
2026-04-17 10:21 49.30918 8.45049 320 ft 7 kts 274°
2026-04-17 10:21 49.30918 8.44999 320 ft 4 kts 203°
2026-04-17 10:21 49.30909 8.45001 320 ft 0 kts 163°
2026-04-17 10:22 49.30905 8.45002 320 ft 10 kts 163°
2026-04-17 10:22 49.30466 8.45184 317 ft 116 kts 165°
2026-04-17 10:22 49.29463 8.45577 653 ft 166 kts 163°
2026-04-17 10:22 49.28292 8.46036 1403 ft 188 kts 162°
2026-04-17 10:23 49.26931 8.46578 2018 ft 210 kts 162°
2026-04-17 10:23 49.25452 8.47173 2587 ft 232 kts 161°
2026-04-17 10:23 49.23802 8.47942 3284 ft 258 kts 160°
2026-04-17 10:23 49.22044 8.48765 4674 ft 265 kts 161°
2026-04-17 10:24 49.20281 8.49564 6145 ft 268 kts 161°
2026-04-17 10:24 49.18473 8.50377 7538 ft 274 kts 161°
2026-04-17 10:24 49.16587 8.51217 8799 ft 283 kts 162°
2026-04-17 10:24 49.14668 8.52064 10021 ft 292 kts 162°
2026-04-17 10:25 49.12696 8.52927 11246 ft 299 kts 163°
2026-04-17 10:25 49.10695 8.53797 12459 ft 305 kts 163°
2026-04-17 10:25 49.08634 8.54688 13578 ft 311 kts 163°
2026-04-17 10:25 49.06542 8.55588 14650 ft 317 kts 163°
2026-04-17 10:26 49.04424 8.56497 15733 ft 322 kts 163°
2026-04-17 10:26 49.02246 8.57428 16756 ft 327 kts 163°
2026-04-17 10:26 49.00026 8.58213 17739 ft 330 kts 174°
2026-04-17 10:26 48.97775 8.57999 18679 ft 331 kts 191°
2026-04-17 10:27 48.95491 8.57283 19552 ft 337 kts 192°
2026-04-17 10:27 48.93138 8.56546 20410 ft 343 kts 192°
2026-04-17 10:27 48.90786 8.55808 21255 ft 348 kts 192°
2026-04-17 10:27 48.88386 8.55051 22101 ft 352 kts 192°
2026-04-17 10:28 48.85962 8.54284 22881 ft 356 kts 193°
2026-04-17 10:28 48.83491 8.53499 23654 ft 361 kts 193°
2026-04-17 10:28 48.81013 8.52711 24401 ft 366 kts 193°
2026-04-17 10:28 48.78494 8.51907 25165 ft 369 kts 193°
2026-04-17 10:29 48.75924 8.51088 25899 ft 373 kts 193°
2026-04-17 10:29 48.73348 8.50265 26597 ft 377 kts 193°
2026-04-17 10:29 48.70736 8.49430 27234 ft 382 kts 193°
2026-04-17 10:29 48.68105 8.48589 27870 ft 385 kts 193°
2026-04-17 10:30 48.65469 8.47746 28438 ft 390 kts 193°
2026-04-17 10:30 48.62765 8.46883 29009 ft 393 kts 193°
2026-04-17 10:30 48.60048 8.46018 29612 ft 396 kts 193°
2026-04-17 10:30 48.57327 8.45153 30223 ft 397 kts 194°
2026-04-17 10:31 48.54595 8.44284 30726 ft 401 kts 194°
2026-04-17 10:31 48.51817 8.43402 31131 ft 406 kts 194°
2026-04-17 10:31 48.48973 8.42497 31209 ft 420 kts 193°
2026-04-17 10:31 48.46030 8.41564 31206 ft 434 kts 193°
2026-04-17 10:32 48.43013 8.40607 31203 ft 446 kts 194°
2026-04-17 10:32 48.39941 8.39636 31205 ft 458 kts 193°
2026-04-17 10:32 48.36733 8.38633 31217 ft 467 kts 192°
2026-04-17 10:32 48.33538 8.37773 31462 ft 469 kts 192°
2026-04-17 10:33 48.30318 8.36874 31815 ft 469 kts 193°
2026-04-17 10:33 48.27076 8.35940 32064 ft 473 kts 192°
2026-04-17 10:33 48.23795 8.35028 31831 ft 481 kts 193°
2026-04-17 10:33 48.20536 8.33706 31290 ft 480 kts 198°
2026-04-17 10:34 48.17339 8.32233 31258 ft 473 kts 201°
2026-04-17 10:34 48.11145 8.28632 31008 ft 475 kts 199°
2026-04-17 10:34 48.08114 8.26691 30839 ft 469 kts 209°
2026-04-17 10:35 48.05260 8.24390 31017 ft 462 kts 213°
2026-04-17 10:35 48.02511 8.21791 31184 ft 462 kts 218°
2026-04-17 10:35 47.99813 8.19145 31190 ft 470 kts 209°
2026-04-17 10:35 47.96688 8.17245 30336 ft 472 kts 210°
2026-04-17 10:36 47.93955 8.14789 30995 ft 443 kts 214°
2026-04-17 10:36 47.91358 8.12192 30839 ft 455 kts 218°
2026-04-17 10:36 47.88953 8.09089 31304 ft 445 kts 228°
2026-04-17 10:36 47.86662 8.06092 31923 ft 437 kts 216°
2026-04-17 10:37 47.83920 8.03923 31572 ft 445 kts 204°
2026-04-17 10:37 47.80995 8.02198 31281 ft 447 kts 204°
2026-04-17 10:37 47.78022 8.00355 31250 ft 452 kts 206°
2026-04-17 10:37 47.75168 7.98357 31933 ft 445 kts 209°
2026-04-17 10:38 47.72382 7.96201 32208 ft 449 kts 210°
2026-04-17 10:38 47.66761 7.91785 32215 ft 463 kts 210°
2026-04-17 10:39 47.61167 7.86856 32098 ft 467 kts 214°
2026-04-17 10:39 47.58231 7.84661 31928 ft 473 kts 204°
2026-04-17 10:39 47.55121 7.82919 31911 ft 471 kts 202°
2026-04-17 10:39 47.51933 7.81803 31889 ft 469 kts 188°
2026-04-17 10:40 47.48634 7.82009 31106 ft 482 kts 178°
2026-04-17 10:40 47.45237 7.82167 30535 ft 483 kts 180°
2026-04-17 10:40 47.41877 7.82533 30747 ft 470 kts 178°
2026-04-17 10:40 47.38618 7.82856 31312 ft 452 kts 173°
2026-04-17 10:41 47.35567 7.83773 31603 ft 444 kts 166°
2026-04-17 10:41 47.32612 7.85184 32033 ft 444 kts 164°
2026-04-17 10:41 47.29533 7.86248 32181 ft 450 kts 173°
2026-04-17 10:42 47.23169 7.86272 32233 ft 462 kts 191°
2026-04-17 10:42 47.16866 7.83513 32358 ft 465 kts 205°
2026-04-17 10:42 47.13987 7.81403 32761 ft 459 kts 213°
2026-04-17 10:43 47.11195 7.79021 33231 ft 455 kts 216°
2026-04-17 10:43 47.08772 7.76004 32951 ft 463 kts 226°
2026-04-17 10:43 47.07541 7.74152 32513 ft 468 kts 229°
2026-04-17 10:44 47.05309 7.70831 31988 ft 461 kts 226°
2026-04-17 10:44 47.03019 7.67523 31785 ft 454 kts 226°
2026-04-17 10:44 47.00928 7.64123 31644 ft 433 kts 234°
2026-04-17 10:45 46.99346 7.60478 31327 ft 413 kts 250°
2026-04-17 10:45 46.98718 7.56569 31417 ft 388 kts 263°
2026-04-17 10:45 46.98328 7.52662 31421 ft 378 kts 263°
2026-04-17 10:46 46.97518 7.45036 31436 ft 380 kts 262°
2026-04-17 10:46 46.96661 7.37352 31407 ft 383 kts 262°
2026-04-17 10:46 46.96205 7.33392 31003 ft 403 kts 261°
2026-04-17 10:47 46.95715 7.29218 30503 ft 428 kts 261°
2026-04-17 10:47 46.95155 7.24782 30087 ft 444 kts 259°
2026-04-17 10:47 46.94553 7.20242 30202 ft 443 kts 260°
2026-04-17 10:47 46.93849 7.15701 28937 ft 473 kts 253°
2026-04-17 10:48 46.93017 7.11026 28422 ft 472 kts 260°
2026-04-17 10:48 46.92489 7.06324 28948 ft 458 kts 261°
2026-04-17 10:48 46.91843 7.01692 28328 ft 464 kts 258°
2026-04-17 10:48 46.91161 6.97003 27798 ft 462 kts 261°
2026-04-17 10:49 46.90429 6.92464 27751 ft 449 kts 255°
2026-04-17 10:49 46.89389 6.88146 26273 ft 458 kts 249°
2026-04-17 10:49 46.88105 6.83894 25673 ft 444 kts 245°
2026-04-17 10:49 46.86611 6.80088 25953 ft 415 kts 238°
2026-04-17 10:50 46.84940 6.76523 24229 ft 435 kts 236°
2026-04-17 10:50 46.83090 6.72872 22901 ft 441 kts 232°
2026-04-17 10:50 46.80951 6.69632 21615 ft 445 kts 221°
2026-04-17 10:50 46.78453 6.67037 21586 ft 419 kts 213°
2026-04-17 10:51 46.75823 6.65292 20608 ft 425 kts 194°
2026-04-17 10:51 46.72833 6.64849 19241 ft 425 kts 184°
2026-04-17 10:51 46.70027 6.64660 19750 ft 388 kts 181°
2026-04-17 10:51 46.67376 6.64893 19229 ft 382 kts 175°
2026-04-17 10:52 46.64685 6.65267 18062 ft 393 kts 175°